FW4632 Weather Reports


Display with metric or nautical units.
time (UTC)temp
F
wind
direction
speed
MPH
gust
MPH
rain 1hr
in
rain 24hr
in
rain mn
in
humidity
%
barometer
mb
20260506044536 29 240 5.0 8.0 0.00 0.13 0.00 94 1005.5
20260506043024 29 247 4.0 7.0 0.00 0.13 0.00 94 1005.4
20260506041527 29 180 3.0 5.0 0.00 0.13 0.00 94 1005.2
20260506040019 28 300 2.0 4.0 0.00 0.13 0.00 94 1005.2
20260506034519 28 311 3.0 4.0 0.00 0.13 0.00 94 1005.1
20260506033017 28 291 3.0 5.0 0.00 0.13 0.00 93 1005.0
20260506031517 27 248 0.0 2.0 0.00 0.13 0.00 93 1004.9
20260506030013 27 243 3.0 6.0 0.00 0.13 0.00 94 1004.7
20260506024517 27 292 2.0 5.0 0.00 0.13 0.00 93 1004.6
20260506023017 27 318 2.0 3.0 0.00 0.13 0.00 93 1004.5
20260506021508 27 316 2.0 5.0 0.00 0.13 0.00 93 1004.4
20260506020006 27 310 3.0 6.0 0.00 0.13 0.00 95 1004.3
20260506014505 27 246 3.0 5.0 0.00 0.13 0.00 95 1004.3
20260506013003 27 231 3.0 5.0 0.00 0.13 0.00 95 1004.2
20260506011624 28 259 1.0 3.0 0.00 0.13 0.00 95 1004.1
20260506010119 28 259 0.0 2.0 0.00 0.13 0.00 95 1004.1
20260506004557 28 250 0.0 2.0 0.00 0.13 0.00 95 1004.0
20260506003058 28 250 1.0 2.0 0.00 0.13 0.00 96 1004.0
20260506001557 28 250 0.0 2.0 0.00 0.13 0.00 95 1003.9
20260506000058 28 250 0.0 3.0 0.00 0.13 0.00 95 1003.9
20260505234551 29 250 2.0 3.0 0.00 0.13 0.00 95 1003.8
20260505233049 29 245 2.0 4.0 0.00 0.13 0.00 96 1003.8
20260505231546 28 282 2.0 3.0 0.00 0.13 0.00 95 1003.8
20260505230045 29 281 1.0 3.0 0.00 0.13 0.00 95 1003.7
20260505224544 29 269 0.0 2.0 0.00 0.13 0.00 95 1003.6
20260505223043 29 269 1.0 3.0 0.00 0.13 0.00 95 1003.6
20260505221546 28 296 2.0 2.0 0.00 0.13 0.00 95 1003.5
20260505220052 29 296 0.0 2.0 0.00 0.13 0.13 95 1003.5
20260505214541 29 301 3.0 4.0 0.00 0.13 0.13 95 1003.4
20260505213039 29 305 0.0 3.0 0.00 0.13 0.13 95 1003.4
20260505211539 29 306 0.0 4.0 0.00 0.13 0.13 95 1003.3
20260505210044 29 260 1.0 4.0 0.00 0.13 0.13 95 1003.2
20260505204532 30 259 4.0 6.0 0.00 0.13 0.13 95 1003.1
20260505203033 30 241 3.0 7.0 0.00 0.13 0.13 95 1003.0
20260505201530 30 264 3.0 5.0 0.00 0.13 0.13 95 1003.0
20260505200030 30 273 3.0 5.0 0.00 0.13 0.13 95 1002.9
20260505194529 30 256 3.0 6.0 0.00 0.13 0.13 95 1002.8
20260505193035 30 245 4.0 6.0 0.00 0.13 0.13 95 1002.8
20260505191526 30 238 4.0 6.0 0.00 0.13 0.13 94 1002.7
20260505190025 30 245 3.0 6.0 0.01 0.13 0.13 95 1002.6
20260505184526 31 241 5.0 7.0 0.02 0.13 0.13 95 1002.5
20260505183034 31 180 4.0 8.0 0.02 0.13 0.13 95 1002.5
20260505181522 31 220 4.0 7.0 0.02 0.13 0.13 95 1002.3
20260505180024 31 240 4.0 9.0 0.02 0.13 0.13 95 1002.2
20260505174519 31 180 5.0 8.0 0.01 0.12 0.12 95 1002.2
20260505173019 31 252 4.0 6.0 0.02 0.12 0.12 95 1002.1
20260505171517 31 240 5.0 6.0 0.01 0.11 0.11 95 1002.0
20260505170017 31 259 3.0 5.0 0.01 0.11 0.11 95 1002.0
20260505164516 31 278 4.0 7.0 0.01 0.11 0.11 95 1002.0
20260505163014 31 180 4.0 7.0 0.01 0.10 0.10 94 1001.8
20260505161513 31 274 7.0 9.0 0.02 0.10 0.10 94 1001.8
20260505153009 31 180 5.0 9.0 0.02 0.09 0.09 94 1001.5
20260505151509 31 232 4.0 6.0 0.01 0.09 0.09 94 1001.4
20260505140108 32 245 6.0 10.0 0.01 0.08 0.08 93 1000.8
20260505124558 32 221 6.0 9.0 0.00 0.07 0.07 93 1000.3
20260505123055 32 180 5.0 9.0 0.00 0.07 0.07 93 1000.3
20260505121547 31 260 5.0 9.0 0.00 0.07 0.07 93 1000.2
20260505120059 31 180 7.0 11.0 0.01 0.07 0.07 93 1000.1
20260505114543 31 255 7.0 10.0 0.02 0.07 0.07 94 999.9
20260505113049 31 248 8.0 12.0 0.02 0.07 0.07 93 999.8
20260505111539 31 240 6.0 8.0 0.02 0.07 0.07 94 999.7
20260505101531 31 180 11.0 16.0 0.02 0.06 0.06 92 999.0
20260505100031 31 252 11.0 14.0 0.01 0.05 0.05 92 999.0
20260505094531 30 273 11.0 15.0 0.02 0.05 0.05 92 998.9
20260505093028 30 249 9.0 13.0 0.02 0.05 0.05 93 998.8
20260505091525 30 250 9.0 12.0 0.02 0.04 0.04 92 998.7
20260505090024 30 248 9.0 12.0 0.02 0.04 0.04 92 998.7
20260505084541 30 180 7.0 13.0 0.02 0.03 0.03 93 998.6
20260505083021 30 180 11.0 15.0 0.02 0.02 0.02 92 998.5
20260505081520 30 257 10.0 14.0 0.02 0.02 0.02 93 998.4
20260505080020 30 180 10.0 13.0 0.02 0.02 0.02 93 998.3
20260505074518 30 252 8.0 13.0 0.01 0.01 0.01 93 998.2
20260505073016 29 180 12.0 16.0 0.01 0.01 0.01 92 998.0
20260505071513 29 180 10.0 16.0 0.01 0.01 0.01 92 998.0
20260505070012 29 248 13.0 16.0 0.00 0.00 0.00 93 997.9
20260505064510 29 248 9.0 14.0 0.00 0.00 0.00 92 997.8
20260505063009 29 252 9.0 13.0 0.00 0.00 0.00 93 997.7
20260505061510 29 264 10.0 15.0 0.00 0.00 0.00 92 997.6
20260505060006 29 180 12.0 15.0 0.00 0.00 0.00 92 997.6